| time (UTC) | temp F | wind direction | speed MPH | gust MPH | rain 1hr in | rain 24hr in | rain mn in | humidity % | barometer mb |
| 20260506062228 | 51 | 79 | 7.0 | 11.0 | 0.00 | 0.02 | 0.00 | 64 | 1005.8 |
| 20260506061729 | 51 | 42 | 3.0 | 12.0 | 0.00 | 0.03 | 0.00 | 66 | 1005.8 |
| 20260506061229 | 51 | 61 | 4.0 | 13.0 | 0.00 | 0.03 | 0.00 | 66 | 1005.8 |
| 20260506060729 | 50 | 30 | 5.0 | 13.0 | 0.00 | 0.04 | 0.00 | 64 | 1005.8 |
| 20260506051229 | 49 | 38 | 6.0 | 12.0 | 0.00 | 0.06 | 0.00 | 67 | 1006.0 |
| 20260506050728 | 49 | 27 | 4.0 | 12.0 | 0.00 | 0.06 | 0.00 | 67 | 1005.9 |
| 20260506050228 | 49 | 61 | 7.0 | 12.0 | 0.00 | 0.06 | 0.00 | 66 | 1006.0 |
| 20260506044728 | 49 | 52 | 6.0 | 12.0 | 0.00 | 0.07 | 0.00 | 68 | 1006.1 |
| 20260506043728 | 49 | 41 | 5.0 | 11.0 | 0.00 | 0.08 | 0.00 | 69 | 1006.0 |
| 20260506043227 | 49 | 75 | 4.0 | 11.0 | 0.00 | 0.09 | 0.00 | 69 | 1006.0 |
| 20260506042726 | 49 | 10 | 4.0 | 11.0 | 0.00 | 0.09 | 0.00 | 70 | 1006.0 |
| 20260506042227 | 49 | 38 | 3.0 | 12.0 | 0.00 | 0.10 | 0.00 | 70 | 1006.0 |
| 20260506041727 | 49 | 38 | 5.0 | 12.0 | 0.00 | 0.10 | 0.00 | 70 | 1005.9 |
| 20260506041228 | 48 | 41 | 7.0 | 10.0 | 0.00 | 0.10 | 0.00 | 71 | 1006.0 |
| 20260506040726 | 48 | 1 | 4.0 | 11.0 | 0.00 | 0.10 | 0.00 | 72 | 1005.9 |
| 20260506040226 | 48 | 51 | 4.0 | 11.0 | 0.00 | 0.10 | 0.00 | 72 | 1006.0 |
| 20260506035226 | 48 | 55 | 5.0 | 11.0 | 0.00 | 0.10 | 0.00 | 73 | 1005.9 |
| 20260506034726 | 48 | 66 | 6.0 | 11.0 | 0.00 | 0.10 | 0.00 | 73 | 1005.9 |
| 20260506034226 | 48 | 61 | 5.0 | 10.0 | 0.00 | 0.10 | 0.00 | 74 | 1006.0 |
| 20260506033727 | 48 | 34 | 4.0 | 9.0 | 0.00 | 0.10 | 0.00 | 75 | 1005.9 |
| 20260506033226 | 48 | 38 | 3.0 | 7.0 | 0.00 | 0.10 | 0.00 | 74 | 1006.0 |
| 20260506032725 | 48 | 83 | 4.0 | 7.0 | 0.00 | 0.10 | 0.00 | 75 | 1006.0 |
| 20260506031724 | 48 | 30 | 4.0 | 10.0 | 0.00 | 0.10 | 0.00 | 75 | 1006.1 |
| 20260506031227 | 48 | 25 | 3.0 | 6.0 | 0.00 | 0.10 | 0.00 | 75 | 1006.1 |
| 20260506030223 | 48 | 358 | 3.0 | 7.0 | 0.00 | 0.10 | 0.00 | 75 | 1006.2 |
| 20260506025724 | 48 | 58 | 2.0 | 10.0 | 0.00 | 0.10 | 0.00 | 76 | 1006.2 |
| 20260506025224 | 48 | 48 | 5.0 | 10.0 | 0.00 | 0.10 | 0.00 | 76 | 1006.1 |
| 20260506024724 | 48 | 0 | 4.0 | 7.0 | 0.00 | 0.10 | 0.00 | 75 | 1006.1 |
| 20260506024223 | 48 | 18 | 4.0 | 7.0 | 0.00 | 0.10 | 0.00 | 75 | 1006.2 |
| 20260506023724 | 48 | 24 | 3.0 | 7.0 | 0.00 | 0.10 | 0.00 | 75 | 1006.2 |
| 20260506023226 | 48 | 350 | 2.0 | 7.0 | 0.00 | 0.10 | 0.00 | 75 | 1006.3 |
| 20260506022723 | 48 | 56 | 4.0 | 7.0 | 0.00 | 0.10 | 0.00 | 75 | 1006.4 |
| 20260506021722 | 48 | 58 | 6.0 | 12.0 | 0.00 | 0.10 | 0.00 | 74 | 1006.4 |
| 20260506021224 | 48 | 20 | 5.0 | 10.0 | 0.00 | 0.10 | 0.00 | 75 | 1006.4 |
| 20260506020724 | 48 | 69 | 4.0 | 10.0 | 0.00 | 0.10 | 0.00 | 74 | 1006.5 |
| 20260506020223 | 47 | 66 | 5.0 | 9.0 | 0.00 | 0.10 | 0.00 | 75 | 1006.6 |
| 20260506014222 | 47 | 31 | 4.0 | 9.0 | 0.00 | 0.10 | 0.00 | 74 | 1006.5 |
| 20260506013722 | 47 | 17 | 4.0 | 6.0 | 0.00 | 0.10 | 0.00 | 73 | 1006.6 |
| 20260506012722 | 48 | 39 | 2.0 | 6.0 | 0.00 | 0.10 | 0.00 | 72 | 1006.7 |
| 20260506012223 | 48 | 59 | 2.0 | 6.0 | 0.00 | 0.10 | 0.00 | 72 | 1006.8 |
| 20260506011722 | 48 | 54 | 2.0 | 9.0 | 0.00 | 0.10 | 0.00 | 71 | 1006.9 |
| 20260506011222 | 48 | 63 | 4.0 | 9.0 | 0.00 | 0.10 | 0.00 | 71 | 1006.9 |
| 20260506005720 | 48 | 52 | 6.0 | 11.0 | 0.00 | 0.10 | 0.00 | 70 | 1006.8 |
| 20260506005220 | 48 | 21 | 6.0 | 11.0 | 0.00 | 0.10 | 0.00 | 71 | 1006.8 |
| 20260506004721 | 48 | 47 | 6.0 | 9.0 | 0.00 | 0.10 | 0.00 | 71 | 1006.8 |
| 20260506003720 | 47 | 38 | 4.0 | 9.0 | 0.00 | 0.10 | 0.00 | 72 | 1007.0 |
| 20260506003222 | 47 | 16 | 4.0 | 9.0 | 0.00 | 0.10 | 0.00 | 72 | 1006.9 |
| 20260506002721 | 47 | 52 | 3.0 | 9.0 | 0.00 | 0.10 | 0.00 | 72 | 1007.1 |
| 20260506002218 | 47 | 35 | 4.0 | 9.0 | 0.00 | 0.10 | 0.00 | 73 | 1007.1 |
| 20260506001719 | 47 | 20 | 4.0 | 11.0 | 0.00 | 0.10 | 0.00 | 73 | 1007.1 |
| 20260506001220 | 47 | 11 | 4.0 | 11.0 | 0.00 | 0.10 | 0.00 | 73 | 1007.1 |
| 20260506000719 | 47 | 28 | 4.0 | 5.0 | 0.00 | 0.10 | 0.00 | 74 | 1007.1 |
| 20260506000219 | 47 | 11 | 4.0 | 6.0 | 0.00 | 0.10 | 0.00 | 75 | 1007.2 |
| 20260505235220 | 47 | 10 | 3.0 | 6.0 | 0.00 | 0.10 | 0.00 | 75 | 1007.2 |
| 20260505234718 | 47 | 14 | 3.0 | 6.0 | 0.00 | 0.10 | 0.00 | 75 | 1007.3 |
| 20260505234218 | 47 | 16 | 3.0 | 6.0 | 0.00 | 0.10 | 0.00 | 76 | 1007.3 |
| 20260505233719 | 47 | 55 | 3.0 | 6.0 | 0.00 | 0.10 | 0.00 | 76 | 1007.4 |
| 20260505233217 | 47 | 54 | 3.0 | 6.0 | 0.00 | 0.10 | 0.00 | 77 | 1007.4 |
| 20260505232718 | 47 | 61 | 2.0 | 6.0 | 0.00 | 0.10 | 0.00 | 77 | 1007.4 |
| 20260505232218 | 47 | 18 | 4.0 | 5.0 | 0.00 | 0.10 | 0.00 | 77 | 1007.4 |
| 20260505231720 | 47 | 47 | 3.0 | 5.0 | 0.00 | 0.10 | 0.00 | 78 | 1007.3 |
| 20260505231218 | 47 | 55 | 1.0 | 4.0 | 0.00 | 0.10 | 0.00 | 77 | 1007.4 |
| 20260505230717 | 48 | 48 | 1.0 | 4.0 | 0.00 | 0.10 | 0.00 | 77 | 1007.4 |
| 20260505225717 | 48 | 31 | 2.0 | 5.0 | 0.00 | 0.10 | 0.00 | 76 | 1007.4 |
| 20260505225216 | 48 | 54 | 3.0 | 7.0 | 0.00 | 0.10 | 0.00 | 76 | 1007.4 |
| 20260505224716 | 48 | 62 | 4.0 | 7.0 | 0.00 | 0.10 | 0.00 | 76 | 1007.5 |
| 20260505224218 | 48 | 76 | 3.0 | 6.0 | 0.00 | 0.10 | 0.00 | 77 | 1007.6 |
| 20260505223717 | 48 | 83 | 4.0 | 6.0 | 0.00 | 0.10 | 0.00 | 77 | 1007.6 |
| 20260505223226 | 48 | 92 | 2.0 | 7.0 | 0.00 | 0.10 | 0.00 | 77 | 1007.6 |
| 20260505222717 | 48 | 38 | 3.0 | 7.0 | 0.00 | 0.10 | 0.00 | 77 | 1007.7 |
| 20260505222217 | 48 | 73 | 3.0 | 5.0 | 0.00 | 0.10 | 0.00 | 78 | 1007.8 |
| 20260505221739 | 49 | 78 | 2.0 | 7.0 | 0.00 | 0.10 | 0.00 | 78 | 1007.9 |
| 20260505221615 | 49 | 59 | 3.0 | 7.0 | 0.00 | 0.10 | 0.00 | 78 | 1007.8 |
| 20260505220714 | 49 | 54 | 3.0 | 9.0 | 0.00 | 0.10 | 0.00 | 77 | 1007.9 |
| 20260505214802 | 49 | 42 | 4.0 | 12.0 | 0.00 | 0.10 | 0.10 | 77 | 1008.0 |
| 20260505214258 | 50 | 37 | 2.0 | 12.0 | 0.00 | 0.10 | 0.10 | 77 | 1007.9 |
| 20260505213810 | 50 | 35 | 3.0 | 10.0 | 0.00 | 0.10 | 0.10 | 78 | 1007.9 |
| 20260505213311 | 50 | 51 | 5.0 | 10.0 | 0.00 | 0.10 | 0.10 | 77 | 1007.9 |
| 20260505212809 | 50 | 72 | 4.0 | 11.0 | 0.00 | 0.10 | 0.10 | 77 | 1007.9 |
| 20260505212309 | 50 | 27 | 5.0 | 11.0 | 0.00 | 0.10 | 0.10 | 77 | 1007.9 |
| 20260505211817 | 50 | 86 | 4.0 | 9.0 | 0.00 | 0.10 | 0.10 | 77 | 1007.8 |
| 20260505211241 | 50 | 24 | 4.0 | 11.0 | 0.00 | 0.10 | 0.10 | 78 | 1007.7 |
| 20260505210751 | 50 | 20 | 3.0 | 11.0 | 0.00 | 0.10 | 0.10 | 77 | 1007.9 |
| 20260505210244 | 51 | 16 | 6.0 | 11.0 | 0.00 | 0.10 | 0.10 | 77 | 1007.9 |
| 20260505205752 | 51 | 48 | 5.0 | 11.0 | 0.00 | 0.10 | 0.10 | 76 | 1008.0 |
| 20260505205251 | 51 | 34 | 6.0 | 12.0 | 0.00 | 0.10 | 0.10 | 76 | 1008.1 |
| 20260505204804 | 51 | 27 | 5.0 | 13.0 | 0.00 | 0.10 | 0.10 | 76 | 1008.0 |
| 20260505204227 | 51 | 52 | 6.0 | 13.0 | 0.00 | 0.10 | 0.10 | 75 | 1007.9 |
| 20260505203733 | 51 | 59 | 8.0 | 14.0 | 0.00 | 0.10 | 0.10 | 75 | 1007.9 |
| 20260505203220 | 51 | 58 | 7.0 | 14.0 | 0.00 | 0.10 | 0.10 | 74 | 1007.9 |
| 20260505202727 | 51 | 30 | 7.0 | 14.0 | 0.00 | 0.10 | 0.10 | 74 | 1007.9 |
| 20260505202212 | 51 | 23 | 6.0 | 14.0 | 0.00 | 0.10 | 0.10 | 74 | 1007.8 |
| 20260505201712 | 51 | 38 | 7.0 | 11.0 | 0.00 | 0.10 | 0.10 | 74 | 1007.8 |
| 20260505201212 | 51 | 45 | 5.0 | 11.0 | 0.00 | 0.10 | 0.10 | 74 | 1007.8 |
| 20260505200712 | 51 | 30 | 7.0 | 12.0 | 0.00 | 0.10 | 0.10 | 73 | 1007.7 |
| 20260505200211 | 51 | 23 | 6.0 | 12.0 | 0.00 | 0.10 | 0.10 | 73 | 1007.6 |
| 20260505195710 | 51 | 6 | 7.0 | 13.0 | 0.00 | 0.10 | 0.10 | 73 | 1007.7 |
| 20260505195210 | 51 | 24 | 7.0 | 13.0 | 0.00 | 0.10 | 0.10 | 73 | 1007.7 |
| 20260505194711 | 51 | 23 | 4.0 | 9.0 | 0.00 | 0.10 | 0.10 | 76 | 1007.6 |
| 20260505194211 | 52 | 6 | 4.0 | 7.0 | 0.00 | 0.10 | 0.10 | 76 | 1007.6 |
| 20260505193712 | 52 | 30 | 5.0 | 9.0 | 0.00 | 0.10 | 0.10 | 75 | 1007.7 |
| 20260505193211 | 52 | 0 | 4.0 | 9.0 | 0.00 | 0.10 | 0.10 | 75 | 1007.6 |
| 20260505191712 | 52 | 13 | 4.0 | 9.0 | 0.00 | 0.10 | 0.10 | 75 | 1007.6 |
| 20260505191209 | 52 | 23 | 4.0 | 9.0 | 0.00 | 0.10 | 0.10 | 75 | 1007.6 |
| 20260505190709 | 52 | 13 | 3.0 | 9.0 | 0.00 | 0.10 | 0.10 | 75 | 1007.6 |
| 20260505190212 | 53 | 357 | 3.0 | 10.0 | 0.00 | 0.10 | 0.10 | 74 | 1007.6 |
| 20260505185710 | 53 | 0 | 4.0 | 10.0 | 0.00 | 0.10 | 0.10 | 74 | 1007.5 |
| 20260505185210 | 53 | 13 | 4.0 | 7.0 | 0.00 | 0.10 | 0.10 | 74 | 1007.6 |
| 20260505184710 | 53 | 0 | 3.0 | 7.0 | 0.00 | 0.10 | 0.10 | 74 | 1007.7 |
| 20260505184210 | 54 | 21 | 3.0 | 7.0 | 0.00 | 0.10 | 0.10 | 74 | 1007.6 |
| 20260505183709 | 54 | 3 | 4.0 | 11.0 | 0.00 | 0.10 | 0.10 | 71 | 1007.6 |
| 20260505183208 | 54 | 13 | 6.0 | 13.0 | 0.00 | 0.10 | 0.10 | 67 | 1007.6 |
| 20260505182209 | 55 | 41 | 7.0 | 14.0 | 0.00 | 0.10 | 0.10 | 66 | 1007.6 |
| 20260505181710 | 55 | 55 | 6.0 | 11.0 | 0.00 | 0.10 | 0.10 | 65 | 1007.6 |
| 20260505181209 | 55 | 20 | 6.0 | 12.0 | 0.00 | 0.10 | 0.10 | 65 | 1007.7 |
| 20260505180208 | 56 | 48 | 6.0 | 12.0 | 0.00 | 0.10 | 0.10 | 65 | 1007.6 |
| 20260505175709 | 56 | 21 | 5.0 | 12.0 | 0.00 | 0.10 | 0.10 | 64 | 1007.6 |
| 20260505174708 | 57 | 31 | 6.0 | 12.0 | 0.00 | 0.10 | 0.10 | 62 | 1007.5 |
| 20260505174208 | 57 | 31 | 6.0 | 12.0 | 0.00 | 0.10 | 0.10 | 62 | 1007.6 |
| 20260505173709 | 57 | 21 | 6.0 | 11.0 | 0.00 | 0.10 | 0.10 | 62 | 1007.6 |
| 20260505173208 | 58 | 16 | 7.0 | 11.0 | 0.00 | 0.10 | 0.10 | 63 | 1007.7 |
| 20260505172708 | 58 | 28 | 5.0 | 12.0 | 0.00 | 0.10 | 0.10 | 63 | 1007.7 |
| 20260505172207 | 58 | 23 | 7.0 | 12.0 | 0.00 | 0.10 | 0.10 | 63 | 1007.7 |
| 20260505171707 | 58 | 39 | 5.0 | 12.0 | 0.00 | 0.10 | 0.10 | 63 | 1007.7 |
| 20260505171207 | 58 | 1 | 4.0 | 12.0 | 0.00 | 0.10 | 0.10 | 62 | 1007.6 |
| 20260505170706 | 59 | 24 | 6.0 | 12.0 | 0.00 | 0.10 | 0.10 | 61 | 1007.6 |
| 20260505170207 | 59 | 6 | 6.0 | 10.0 | 0.00 | 0.10 | 0.10 | 61 | 1007.6 |
| 20260505165207 | 60 | 11 | 4.0 | 7.0 | 0.00 | 0.10 | 0.10 | 62 | 1007.7 |
| 20260505164706 | 60 | 23 | 5.0 | 10.0 | 0.00 | 0.10 | 0.10 | 61 | 1007.7 |
| 20260505164206 | 60 | 30 | 4.0 | 10.0 | 0.00 | 0.10 | 0.10 | 61 | 1007.8 |
| 20260505163706 | 60 | 37 | 4.0 | 13.0 | 0.00 | 0.10 | 0.10 | 61 | 1007.8 |
| 20260505163206 | 60 | 8 | 6.0 | 13.0 | 0.00 | 0.10 | 0.10 | 61 | 1007.8 |
| 20260505162705 | 60 | 47 | 5.0 | 11.0 | 0.00 | 0.10 | 0.10 | 60 | 1007.9 |
| 20260505162208 | 60 | 37 | 6.0 | 10.0 | 0.00 | 0.10 | 0.10 | 61 | 1007.9 |
| 20260505161205 | 59 | 11 | 6.0 | 11.0 | 0.00 | 0.10 | 0.10 | 60 | 1007.8 |
| 20260505160705 | 60 | 47 | 6.0 | 11.0 | 0.00 | 0.10 | 0.10 | 61 | 1008.0 |
| 20260505160205 | 59 | 45 | 5.0 | 10.0 | 0.00 | 0.10 | 0.10 | 62 | 1008.0 |
| 20260505153204 | 58 | 75 | 2.0 | 9.0 | 0.00 | 0.10 | 0.10 | 66 | 1008.1 |
| 20260505152704 | 58 | 45 | 5.0 | 7.0 | 0.00 | 0.10 | 0.10 | 69 | 1008.1 |
| 20260505152204 | 58 | 116 | 4.0 | 7.0 | 0.00 | 0.10 | 0.10 | 68 | 1008.0 |
| 20260505151704 | 57 | 23 | 5.0 | 9.0 | 0.00 | 0.10 | 0.10 | 69 | 1008.1 |
| 20260505151204 | 57 | 21 | 3.0 | 9.0 | 0.00 | 0.10 | 0.10 | 69 | 1008.0 |
| 20260505150205 | 57 | 86 | 4.0 | 10.0 | 0.00 | 0.10 | 0.10 | 69 | 1008.1 |
| 20260505140200 | 57 | 8 | 4.0 | 11.0 | 0.00 | 0.10 | 0.10 | 72 | 1008.4 |
| 20260505130159 | 56 | 59 | 4.0 | 9.0 | 0.00 | 0.10 | 0.10 | 77 | 1008.6 |
| 20260505124659 | 55 | 51 | 4.0 | 9.0 | 0.00 | 0.10 | 0.10 | 75 | 1008.7 |
| 20260505124158 | 55 | 39 | 4.0 | 10.0 | 0.00 | 0.10 | 0.10 | 76 | 1008.7 |
| 20260505123701 | 55 | 39 | 5.0 | 10.0 | 0.00 | 0.10 | 0.10 | 76 | 1008.8 |
| 20260505123200 | 55 | 27 | 4.0 | 10.0 | 0.00 | 0.10 | 0.10 | 77 | 1008.8 |
| 20260505122657 | 55 | 52 | 4.0 | 10.0 | 0.00 | 0.10 | 0.10 | 75 | 1008.9 |
| 20260505122159 | 55 | 31 | 5.0 | 9.0 | 0.00 | 0.10 | 0.10 | 76 | 1008.9 |
| 20260505121658 | 55 | 66 | 4.0 | 10.0 | 0.00 | 0.10 | 0.10 | 78 | 1008.9 |
| 20260505121158 | 55 | 41 | 6.0 | 10.0 | 0.00 | 0.10 | 0.10 | 77 | 1008.9 |
| 20260505120657 | 55 | 16 | 5.0 | 11.0 | 0.00 | 0.10 | 0.10 | 78 | 1008.8 |
| 20260505115659 | 55 | 39 | 5.0 | 7.0 | 0.00 | 0.10 | 0.10 | 78 | 1009.0 |
| 20260505115158 | 54 | 38 | 5.0 | 7.0 | 0.00 | 0.10 | 0.10 | 79 | 1008.9 |
| 20260505114658 | 54 | 16 | 3.0 | 12.0 | 0.00 | 0.10 | 0.10 | 79 | 1009.0 |
| 20260505114205 | 54 | 16 | 7.0 | 12.0 | 0.00 | 0.10 | 0.10 | 77 | 1008.9 |
| 20260505113657 | 54 | 28 | 6.0 | 13.0 | 0.00 | 0.10 | 0.10 | 79 | 1009.0 |
| 20260505113157 | 54 | 20 | 7.0 | 13.0 | 0.00 | 0.10 | 0.10 | 78 | 1009.0 |
| 20260505112656 | 54 | 11 | 4.0 | 7.0 | 0.00 | 0.10 | 0.10 | 79 | 1009.0 |
| 20260505112157 | 54 | 65 | 6.0 | 11.0 | 0.00 | 0.10 | 0.10 | 79 | 1009.0 |
| 20260505111657 | 54 | 24 | 7.0 | 11.0 | 0.00 | 0.10 | 0.10 | 79 | 1009.0 |
| 20260505111205 | 54 | 31 | 4.0 | 11.0 | 0.00 | 0.10 | 0.10 | 80 | 1009.0 |
| 20260505110657 | 54 | 28 | 7.0 | 11.0 | 0.00 | 0.10 | 0.10 | 79 | 1009.1 |
| 20260505110157 | 53 | 55 | 6.0 | 10.0 | 0.00 | 0.10 | 0.10 | 82 | 1009.1 |
| 20260505102154 | 52 | 39 | 4.0 | 10.0 | 0.00 | 0.10 | 0.10 | 84 | 1009.2 |
| 20260505101654 | 52 | 32 | 4.0 | 11.0 | 0.00 | 0.10 | 0.10 | 83 | 1009.2 |
| 20260505101155 | 51 | 6 | 5.0 | 11.0 | 0.00 | 0.10 | 0.10 | 85 | 1009.3 |
| 20260505100154 | 51 | 28 | 6.0 | 11.0 | 0.00 | 0.10 | 0.10 | 86 | 1009.1 |
| 20260505095654 | 51 | 3 | 4.0 | 11.0 | 0.00 | 0.10 | 0.10 | 86 | 1009.2 |
| 20260505094652 | 51 | 39 | 6.0 | 11.0 | 0.00 | 0.10 | 0.10 | 87 | 1009.3 |
| 20260505094153 | 51 | 32 | 5.0 | 12.0 | 0.00 | 0.10 | 0.10 | 88 | 1009.2 |
| 20260505093654 | 51 | 30 | 6.0 | 12.0 | 0.00 | 0.10 | 0.10 | 87 | 1009.2 |
| 20260505092724 | 51 | 44 | 6.0 | 11.0 | 0.00 | 0.10 | 0.10 | 87 | 1009.2 |
| 20260505092153 | 51 | 44 | 6.0 | 11.0 | 0.00 | 0.10 | 0.10 | 87 | 1009.2 |
| 20260505091653 | 51 | 31 | 6.0 | 11.0 | 0.00 | 0.10 | 0.10 | 89 | 1009.1 |
| 20260505091153 | 51 | 39 | 7.0 | 11.0 | 0.00 | 0.10 | 0.10 | 90 | 1009.2 |
| 20260505090652 | 51 | 18 | 6.0 | 11.0 | 0.00 | 0.10 | 0.10 | 90 | 1009.1 |
| 20260505090152 | 51 | 6 | 6.0 | 12.0 | 0.00 | 0.10 | 0.10 | 90 | 1009.1 |
| 20260505085652 | 51 | 11 | 6.0 | 12.0 | 0.00 | 0.10 | 0.10 | 91 | 1009.0 |
| 20260505085153 | 51 | 30 | 6.0 | 12.0 | 0.01 | 0.10 | 0.10 | 91 | 1009.1 |
| 20260505084652 | 51 | 4 | 5.0 | 11.0 | 0.01 | 0.10 | 0.10 | 91 | 1009.1 |
| 20260505084152 | 50 | 37 | 6.0 | 11.0 | 0.01 | 0.10 | 0.10 | 91 | 1009.1 |
| 20260505083652 | 50 | 37 | 5.0 | 11.0 | 0.01 | 0.10 | 0.10 | 91 | 1009.2 |
| 20260505083152 | 50 | 0 | 4.0 | 11.0 | 0.01 | 0.10 | 0.10 | 91 | 1009.1 |
| 20260505082650 | 50 | 10 | 4.0 | 10.0 | 0.01 | 0.10 | 0.10 | 91 | 1009.1 |
| 20260505082151 | 50 | 39 | 6.0 | 10.0 | 0.01 | 0.10 | 0.10 | 92 | 1009.1 |
| 20260505081652 | 50 | 30 | 5.0 | 9.0 | 0.01 | 0.10 | 0.10 | 92 | 1009.0 |
| 20260505081151 | 50 | 51 | 4.0 | 10.0 | 0.02 | 0.10 | 0.10 | 92 | 1009.0 |
| 20260505080651 | 50 | 17 | 5.0 | 10.0 | 0.02 | 0.10 | 0.10 | 92 | 1009.0 |
| 20260505080151 | 50 | 23 | 6.0 | 10.0 | 0.02 | 0.10 | 0.10 | 92 | 1009.0 |
| 20260505075651 | 50 | 27 | 6.0 | 10.0 | 0.02 | 0.09 | 0.09 | 92 | 1009.0 |
| 20260505075150 | 50 | 27 | 5.0 | 10.0 | 0.01 | 0.09 | 0.09 | 92 | 1008.9 |
| 20260505074651 | 50 | 38 | 5.0 | 10.0 | 0.01 | 0.09 | 0.09 | 92 | 1008.9 |
| 20260505074151 | 50 | 30 | 6.0 | 11.0 | 0.02 | 0.09 | 0.09 | 92 | 1009.0 |
| 20260505073652 | 50 | 30 | 6.0 | 11.0 | 0.02 | 0.09 | 0.09 | 92 | 1009.0 |
| 20260505073152 | 50 | 16 | 7.0 | 11.0 | 0.02 | 0.09 | 0.09 | 92 | 1008.9 |
| 20260505072651 | 50 | 38 | 6.0 | 10.0 | 0.02 | 0.09 | 0.09 | 92 | 1008.9 |
| 20260505072151 | 50 | 35 | 5.0 | 11.0 | 0.02 | 0.09 | 0.09 | 92 | 1008.9 |
| 20260505071649 | 50 | 37 | 6.0 | 11.0 | 0.02 | 0.09 | 0.09 | 92 | 1008.9 |
| 20260505065651 | 50 | 38 | 5.0 | 7.0 | 0.03 | 0.06 | 0.09 | 92 | 1009.0 |